sat.trackr.live / text

‹ back to catalog

STARLINK-31000

NORAD 58488 · 2023-186R

PAYLOAD ACTIVE UNKNOWN

§ Identity

Operator
Country
US
Launch date
2023-12-03
Launch site
AFETR
Launch vehicle
Mass (kg)
RCS (m²)

Purposes: comms

External: N2YO · Heavens-Above · Gunter

§ Orbital elements

Epoch: 2026-09-20T20:26:56.492736Z

Period
94.27 min
Inclination
43.0023°
Eccentricity
0.0001686
Mean motion
15.27581416 rev/d
Perigee alt
481.9 km
Apogee alt
484.2 km
Semi-major
6,861.2 km
B*
6.1270e-5
RAAN
41.4846°
Arg perigee
293.1499°
Mean anomaly
66.9175°
Rev number
15,573

§ Raw data

STARLINK-310001 58488U 23186R   26263.85204274  .00001424  00000+0  61270-4 0  99942 58488  43.0023  41.4846 0001686 293.1499  66.9175 15.27581416155737

JSON: /api/v1/satellites/58488 · /tle

For live sub-satellite position, see the globe view (requires WebGL).

§ Visibility from observer

Set your observer location to see the next 7 days of passes ≥ 10°. The values pass through the URL so the page stays shareable.

No JS? Fill the form by hand. The geolocation button needs JavaScript.